Time,TemperatureF,DewpointF,PressureIn,WindDirection,WindDirectionDegrees,WindSpeedMPH,WindSpeedGustMPH,Humidity,HourlyPrecipIn,Conditions,Clouds,dailyrainin,SoftwareType,DateUTC
2013-03-29 00:00:00,36.2,29.0,30.27,East,93,0.0,0.0,75,0.00,,,0.00,Wunderground v.1.15,2013-03-29 04:00:00,
2013-03-29 00:05:00,36.2,29.0,30.27,East,94,0.0,0.0,75,0.00,,,0.00,Wunderground v.1.15,2013-03-29 04:05:00,
2013-03-29 00:10:00,36.1,28.9,30.27,East,94,0.0,0.0,75,0.00,,,0.00,Wunderground v.1.15,2013-03-29 04:10:00,
2013-03-29 00:15:00,36.0,28.8,30.27,East,93,0.0,0.0,75,0.00,,,0.00,Wunderground v.1.15,2013-03-29 04:15:00,
2013-03-29 00:20:00,35.9,28.7,30.27,East,93,0.0,0.0,75,0.00,,,0.00,Wunderground v.1.15,2013-03-29 04:20:00,
2013-03-29 00:30:00,35.9,29.1,30.27,East,94,0.0,0.0,76,0.00,,,0.00,Wunderground v.1.15,2013-03-29 04:30:00,
2013-03-29 00:35:00,35.8,29.0,30.27,East,94,0.0,0.0,76,0.00,,,0.00,Wunderground v.1.15,2013-03-29 04:35:00,
2013-03-29 00:40:00,35.7,28.9,30.27,East,94,0.0,0.0,76,0.00,,,0.00,Wunderground v.1.15,2013-03-29 04:40:00,
2013-03-29 00:45:00,35.7,28.9,30.27,East,93,0.0,0.0,76,0.00,,,0.00,Wunderground v.1.15,2013-03-29 04:45:00,
2013-03-29 00:55:00,35.6,29.1,30.27,East,93,0.0,0.0,77,0.00,,,0.00,Wunderground v.1.15,2013-03-29 04:55:00,
2013-03-29 01:00:00,35.5,28.7,30.27,East,94,0.0,0.0,76,0.00,,,0.00,Wunderground v.1.15,2013-03-29 05:00:00,
2013-03-29 01:10:00,35.5,29.3,30.27,East,93,0.0,0.0,78,0.00,,,0.00,Wunderground v.1.15,2013-03-29 05:10:00,
2013-03-29 01:15:00,35.5,29.6,30.27,East,93,0.0,0.0,79,0.00,,,0.00,Wunderground v.1.15,2013-03-29 05:15:00,
2013-03-29 01:20:00,35.6,29.7,30.27,East,93,0.0,0.0,79,0.00,,,0.00,Wunderground v.1.15,2013-03-29 05:20:00,
2013-03-29 01:30:00,35.6,30.0,30.27,East,93,0.0,0.0,80,0.00,,,0.00,Wunderground v.1.15,2013-03-29 05:30:00,
2013-03-29 01:35:00,35.5,29.9,30.27,East,93,0.0,0.0,80,0.00,,,0.00,Wunderground v.1.15,2013-03-29 05:35:00,
2013-03-29 01:40:00,35.5,29.9,30.27,East,94,0.0,0.0,80,0.00,,,0.00,Wunderground v.1.15,2013-03-29 05:40:00,
2013-03-29 01:50:00,35.4,29.8,30.27,East,93,0.0,0.0,80,0.00,,,0.00,Wunderground v.1.15,2013-03-29 05:50:00,
2013-03-29 02:00:00,35.3,29.4,30.28,East,94,0.0,0.0,79,0.00,,,0.00,Wunderground v.1.15,2013-03-29 06:00:00,
2013-03-29 02:10:00,35.1,29.2,30.28,East,93,0.0,0.0,79,0.00,,,0.00,Wunderground v.1.15,2013-03-29 06:10:00,
2013-03-29 02:20:00,34.9,29.4,30.28,East,93,0.0,0.0,80,0.00,,,0.00,Wunderground v.1.15,2013-03-29 06:20:00,
2013-03-29 02:25:00,34.8,29.6,30.28,East,93,0.0,0.0,81,0.00,,,0.00,Wunderground v.1.15,2013-03-29 06:25:00,
2013-03-29 02:35:00,34.3,29.1,30.27,East,93,0.0,0.0,81,0.00,,,0.00,Wunderground v.1.15,2013-03-29 06:35:00,
2013-03-29 02:45:00,33.9,29.3,30.27,East,93,0.0,0.0,83,0.00,,,0.00,Wunderground v.1.15,2013-03-29 06:45:00,
2013-03-29 02:50:00,33.5,28.9,30.27,East,93,0.0,0.0,83,0.00,,,0.00,Wunderground v.1.15,2013-03-29 06:50:00,
2013-03-29 02:55:00,33.3,28.7,30.27,East,94,0.0,0.0,83,0.00,,,0.00,Wunderground v.1.15,2013-03-29 06:55:00,
2013-03-29 03:00:00,33.1,28.8,30.27,East,93,0.0,0.0,84,0.00,,,0.00,Wunderground v.1.15,2013-03-29 07:00:00,
2013-03-29 03:10:00,32.9,29.2,30.27,East,93,0.0,0.0,86,0.00,,,0.00,Wunderground v.1.15,2013-03-29 07:10:00,
2013-03-29 03:20:00,32.9,29.2,30.27,East,93,0.0,0.0,86,0.00,,,0.00,Wunderground v.1.15,2013-03-29 07:20:00,
2013-03-29 03:25:00,32.9,29.2,30.27,East,93,0.0,0.0,86,0.00,,,0.00,Wunderground v.1.15,2013-03-29 07:25:00,
2013-03-29 03:35:00,33.1,29.4,30.27,East,94,0.0,0.0,86,0.00,,,0.00,Wunderground v.1.15,2013-03-29 07:35:00,
2013-03-29 03:45:00,33.0,29.3,30.27,East,94,0.0,0.0,86,0.00,,,0.00,Wunderground v.1.15,2013-03-29 07:45:00,
2013-03-29 03:50:00,33.0,29.3,30.27,East,93,0.0,0.0,86,0.00,,,0.00,Wunderground v.1.15,2013-03-29 07:50:00,
2013-03-29 04:00:00,33.0,29.3,30.27,East,93,0.0,0.0,86,0.00,,,0.00,Wunderground v.1.15,2013-03-29 08:00:00,
2013-03-29 04:10:00,33.0,29.6,30.27,East,94,0.0,0.0,87,0.00,,,0.00,Wunderground v.1.15,2013-03-29 08:10:00,
2013-03-29 04:15:00,33.0,29.6,30.27,East,93,0.0,0.0,87,0.00,,,0.00,Wunderground v.1.15,2013-03-29 08:15:00,
2013-03-29 04:20:00,33.0,29.6,30.27,East,93,0.0,0.0,87,0.00,,,0.00,Wunderground v.1.15,2013-03-29 08:20:00,
2013-03-29 04:30:00,33.1,29.7,30.27,East,94,0.0,0.0,87,0.00,,,0.00,Wunderground v.1.15,2013-03-29 08:30:00,
2013-03-29 04:35:00,33.2,29.5,30.27,East,93,0.0,0.0,86,0.00,,,0.00,Wunderground v.1.15,2013-03-29 08:35:00,
2013-03-29 04:45:00,33.1,29.4,30.27,East,93,0.0,0.0,86,0.00,,,0.00,Wunderground v.1.15,2013-03-29 08:45:00,
2013-03-29 04:50:00,33.0,29.3,30.27,East,93,0.0,0.0,86,0.00,,,0.00,Wunderground v.1.15,2013-03-29 08:50:00,
2013-03-29 05:00:00,32.6,29.2,30.27,East,94,0.0,0.0,87,0.00,,,0.00,Wunderground v.1.15,2013-03-29 09:00:00,
2013-03-29 05:10:00,32.3,29.1,30.27,East,93,0.0,0.0,88,0.00,,,0.00,Wunderground v.1.15,2013-03-29 09:10:00,
2013-03-29 05:15:00,32.1,28.9,30.27,East,93,0.0,0.0,88,0.00,,,0.00,Wunderground v.1.15,2013-03-29 09:15:00,
2013-03-29 05:20:00,31.9,28.8,30.27,East,93,0.0,0.0,88,0.00,,,0.00,Wunderground v.1.15,2013-03-29 09:20:00,
2013-03-29 05:30:00,31.6,28.7,30.27,East,93,0.0,0.0,89,0.00,,,0.00,Wunderground v.1.15,2013-03-29 09:30:00,
2013-03-29 05:35:00,31.6,28.7,30.27,East,94,0.0,0.0,89,0.00,,,0.00,Wunderground v.1.15,2013-03-29 09:35:00,
2013-03-29 05:45:00,31.6,28.7,30.27,East,93,0.0,0.0,89,0.00,,,0.00,Wunderground v.1.15,2013-03-29 09:45:00,
2013-03-29 08:00:00,32.5,29.3,30.29,ESE,118,0.0,0.0,88,0.00,,,0.00,Wunderground v.1.15,2013-03-29 12:00:00,
2013-03-29 08:10:00,32.9,29.7,30.29,WSW,249,0.0,1.0,88,0.00,,,0.00,Wunderground v.1.15,2013-03-29 12:10:00,
2013-03-29 08:15:00,33.1,29.7,30.29,WSW,245,1.0,1.0,87,0.00,,,0.00,Wunderground v.1.15,2013-03-29 12:15:00,
2013-03-29 08:20:00,33.3,29.8,30.29,WSW,245,1.0,1.0,87,0.00,,,0.00,Wunderground v.1.15,2013-03-29 12:20:00,
2013-03-29 08:25:00,33.5,30.0,30.29,SSW,204,0.0,1.0,87,0.00,,,0.00,Wunderground v.1.15,2013-03-29 12:25:00,
2013-03-29 08:35:00,33.9,30.2,30.29,West,259,0.0,1.0,86,0.00,,,0.00,Wunderground v.1.15,2013-03-29 12:35:00,
2013-03-29 08:45:00,34.3,30.3,30.29,WSW,248,1.0,1.0,85,0.00,,,0.00,Wunderground v.1.15,2013-03-29 12:45:00,
2013-03-29 08:50:00,34.5,30.5,30.29,SW,218,0.0,0.0,85,0.00,,,0.00,Wunderground v.1.15,2013-03-29 12:50:00,
2013-03-29 09:00:00,35.1,30.8,30.29,SW,218,0.0,0.0,84,0.00,,,0.00,Wunderground v.1.15,2013-03-29 13:00:00,
2013-03-29 09:10:00,35.6,30.9,30.29,West,259,1.0,1.0,83,0.00,,,0.00,Wunderground v.1.15,2013-03-29 13:10:00,
2013-03-29 09:15:00,35.9,31.2,30.29,West,259,0.0,1.0,83,0.00,,,0.00,Wunderground v.1.15,2013-03-29 13:15:00,
2013-03-29 09:25:00,36.4,31.1,30.29,WSW,242,1.0,1.0,81,0.00,,,0.00,Wunderground v.1.15,2013-03-29 13:25:00,
2013-03-29 09:30:00,36.7,31.4,30.29,SW,219,1.0,1.0,81,0.00,,,0.00,Wunderground v.1.15,2013-03-29 13:30:00,
2013-03-29 09:40:00,37.3,31.7,30.29,SW,222,0.0,0.0,80,0.00,,,0.00,Wunderground v.1.15,2013-03-29 13:40:00,
2013-03-29 09:45:00,37.7,31.5,30.29,West,266,0.0,0.0,78,0.00,,,0.00,Wunderground v.1.15,2013-03-29 13:45:00,
2013-03-29 09:55:00,38.5,31.9,30.29,West,266,0.0,0.0,77,0.00,,,0.00,Wunderground v.1.15,2013-03-29 13:55:00,
2013-03-29 10:00:00,38.9,32.0,30.29,West,266,0.0,0.0,76,0.00,,,0.00,Wunderground v.1.15,2013-03-29 14:00:00,
2013-03-29 10:10:00,40.1,32.5,30.28,West,274,0.0,0.0,74,0.00,,,0.00,Wunderground v.1.15,2013-03-29 14:10:00,
2013-03-29 10:15:00,40.7,32.4,30.28,West,274,0.0,0.0,72,0.00,,,0.00,Wunderground v.1.15,2013-03-29 14:15:00,
2013-03-29 10:25:00,41.8,32.4,30.28,SW,235,0.0,1.0,69,0.00,,,0.00,Wunderground v.1.15,2013-03-29 14:25:00,
2013-03-29 10:30:00,42.5,32.3,30.28,NE,52,1.0,2.0,67,0.00,,,0.00,Wunderground v.1.15,2013-03-29 14:30:00,
2013-03-29 10:40:00,43.4,31.6,30.28,NW,305,1.0,3.0,63,0.00,,,0.00,Wunderground v.1.15,2013-03-29 14:40:00,
2013-03-29 10:45:00,43.8,31.6,30.28,WNW,283,1.0,3.0,62,0.00,,,0.00,Wunderground v.1.15,2013-03-29 14:45:00,
2013-03-29 10:55:00,44.7,31.7,30.28,West,267,2.0,5.0,60,0.00,,,0.00,Wunderground v.1.15,2013-03-29 14:55:00,
2013-03-29 11:00:00,45.2,31.7,30.28,SE,145,2.0,2.0,59,0.00,,,0.00,Wunderground v.1.15,2013-03-29 15:00:00,
2013-03-29 11:10:00,45.8,31.9,30.28,WSW,243,2.0,2.0,58,0.00,,,0.00,Wunderground v.1.15,2013-03-29 15:10:00,
2013-03-29 11:15:00,46.4,31.5,30.27,NW,314,2.0,2.0,56,0.00,,,0.00,Wunderground v.1.15,2013-03-29 15:15:00,
2013-03-29 11:25:00,47.3,31.9,30.27,West,277,2.0,3.0,55,0.00,,,0.00,Wunderground v.1.15,2013-03-29 15:25:00,
2013-03-29 11:30:00,48.1,31.8,30.27,NW,305,2.0,2.0,53,0.00,,,0.00,Wunderground v.1.15,2013-03-29 15:30:00,
2013-03-29 11:40:00,48.9,31.5,30.27,West,269,2.0,2.0,51,0.00,,,0.00,Wunderground v.1.15,2013-03-29 15:40:00,
2013-03-29 11:45:00,48.8,30.5,30.27,ENE,59,2.0,4.0,49,0.00,,,0.00,Wunderground v.1.15,2013-03-29 15:45:00,
2013-03-29 11:55:00,48.4,30.6,30.26,North,3,2.0,2.0,50,0.00,,,0.00,Wunderground v.1.15,2013-03-29 15:55:00,
2013-03-29 12:00:00,48.8,31.0,30.26,West,259,2.0,2.0,50,0.00,,,0.00,Wunderground v.1.15,2013-03-29 16:00:00,
2013-03-29 12:10:00,49.2,30.3,30.25,NNW,327,2.0,2.0,48,0.00,,,0.00,Wunderground v.1.15,2013-03-29 16:10:00,
2013-03-29 12:15:00,49.2,30.3,30.25,NW,311,2.0,2.0,48,0.00,,,0.00,Wunderground v.1.15,2013-03-29 16:15:00,
2013-03-29 12:25:00,49.5,29.0,30.25,NNE,29,3.0,3.0,45,0.00,,,0.00,Wunderground v.1.15,2013-03-29 16:25:00,
2013-03-29 12:30:00,49.6,29.1,30.25,NE,56,2.0,2.0,45,0.00,,,0.00,Wunderground v.1.15,2013-03-29 16:30:00,
2013-03-29 12:40:00,49.5,27.9,30.24,WNW,289,3.0,3.0,43,0.00,,,0.00,Wunderground v.1.15,2013-03-29 16:40:00,
2013-03-29 12:45:00,49.5,27.3,30.24,NNW,327,3.0,3.0,42,0.00,,,0.00,Wunderground v.1.15,2013-03-29 16:45:00,
2013-03-29 12:55:00,49.1,27.5,30.24,East,96,3.0,3.0,43,0.00,,,0.00,Wunderground v.1.15,2013-03-29 16:55:00,
2013-03-29 13:00:00,49.0,28.0,30.24,West,273,3.0,3.0,44,0.00,,,0.00,Wunderground v.1.15,2013-03-29 17:00:00,
2013-03-29 13:10:00,49.0,29.6,30.24,NNW,335,3.0,3.0,47,0.00,,,0.00,Wunderground v.1.15,2013-03-29 17:10:00,
2013-03-29 13:15:00,49.9,28.8,30.24,ENE,71,2.0,3.0,44,0.00,,,0.00,Wunderground v.1.15,2013-03-29 17:15:00,
2013-03-29 13:25:00,51.4,28.5,30.23,NE,45,3.0,4.0,41,0.00,,,0.00,Wunderground v.1.15,2013-03-29 17:25:00,
2013-03-29 13:30:00,51.6,28.0,30.23,SE,129,3.0,3.0,40,0.00,,,0.00,Wunderground v.1.15,2013-03-29 17:30:00,
2013-03-29 13:40:00,50.8,26.7,30.23,SSW,193,3.0,6.0,39,0.00,,,0.00,Wunderground v.1.15,2013-03-29 17:40:00,
2013-03-29 13:45:00,50.8,27.3,30.23,NNE,26,3.0,6.0,40,0.00,,,0.00,Wunderground v.1.15,2013-03-29 17:45:00,
2013-03-29 13:55:00,51.4,26.6,30.23,SW,228,4.0,7.0,38,0.00,,,0.00,Wunderground v.1.15,2013-03-29 17:55:00,
2013-03-29 14:00:00,50.9,26.2,30.22,NW,323,5.0,5.0,38,0.00,,,0.00,Wunderground v.1.15,2013-03-29 18:00:00,
2013-03-29 14:10:00,50.7,27.2,30.22,NNW,329,2.0,4.0,40,0.00,,,0.00,Wunderground v.1.15,2013-03-29 18:10:00,
2013-03-29 14:15:00,50.9,26.2,30.22,WNW,289,2.0,4.0,38,0.00,,,0.00,Wunderground v.1.15,2013-03-29 18:15:00,
2013-03-29 14:25:00,50.9,26.8,30.22,SW,225,3.0,3.0,39,0.00,,,0.00,Wunderground v.1.15,2013-03-29 18:25:00,
2013-03-29 14:30:00,51.5,25.4,30.21,West,259,2.0,4.0,36,0.00,,,0.00,Wunderground v.1.15,2013-03-29 18:30:00,
2013-03-29 14:40:00,51.8,25.0,30.21,SSW,212,5.0,7.0,35,0.00,,,0.00,Wunderground v.1.15,2013-03-29 18:40:00,
2013-03-29 14:45:00,51.5,25.4,30.21,SSE,160,4.0,7.0,36,0.00,,,0.00,Wunderground v.1.15,2013-03-29 18:45:00,
2013-03-29 14:55:00,51.0,25.6,30.21,NE,56,3.0,5.0,37,0.00,,,0.00,Wunderground v.1.15,2013-03-29 18:55:00,
2013-03-29 15:00:00,51.6,24.8,30.21,WNW,293,3.0,3.0,35,0.00,,,0.00,Wunderground v.1.15,2013-03-29 19:00:00,
2013-03-29 15:10:00,52.0,23.8,30.20,West,270,4.0,4.0,33,0.00,,,0.00,Wunderground v.1.15,2013-03-29 19:10:00,
2013-03-29 15:15:00,52.3,24.0,30.19,WSW,255,4.0,4.0,33,0.00,,,0.00,Wunderground v.1.15,2013-03-29 19:15:00,
2013-03-29 15:25:00,52.6,24.3,30.19,NE,50,2.0,3.0,33,0.00,,,0.00,Wunderground v.1.15,2013-03-29 19:25:00,
2013-03-29 15:30:00,52.3,24.0,30.19,SSW,205,2.0,4.0,33,0.00,,,0.00,Wunderground v.1.15,2013-03-29 19:30:00,
2013-03-29 15:40:00,51.9,24.4,30.19,SSE,152,3.0,3.0,34,0.00,,,0.00,Wunderground v.1.15,2013-03-29 19:40:00,
2013-03-29 15:45:00,52.2,23.9,30.19,WNW,302,2.0,4.0,33,0.00,,,0.00,Wunderground v.1.15,2013-03-29 19:45:00,
2013-03-29 15:55:00,52.1,24.6,30.19,ESE,114,2.0,2.0,34,0.00,,,0.00,Wunderground v.1.15,2013-03-29 19:55:00,
2013-03-29 16:00:00,52.8,25.9,30.18,ENE,60,2.0,2.0,35,0.00,,,0.00,Wunderground v.1.15,2013-03-29 20:00:00,
2013-03-29 16:10:00,53.2,24.1,30.18,North,356,3.0,3.0,32,0.00,,,0.00,Wunderground v.1.15,2013-03-29 20:10:00,
2013-03-29 16:15:00,53.2,24.8,30.18,NE,43,3.0,3.0,33,0.00,,,0.00,Wunderground v.1.15,2013-03-29 20:15:00,
2013-03-29 16:25:00,52.0,24.5,30.18,North,353,3.0,3.0,34,0.00,,,0.00,Wunderground v.1.15,2013-03-29 20:25:00,
2013-03-29 16:30:00,51.9,25.1,30.18,SW,214,2.0,5.0,35,0.00,,,0.00,Wunderground v.1.15,2013-03-29 20:30:00,
2013-03-29 16:40:00,52.7,25.8,30.18,SW,230,2.0,4.0,35,0.00,,,0.00,Wunderground v.1.15,2013-03-29 20:40:00,
2013-03-29 16:45:00,53.0,26.0,30.18,NNE,30,2.0,4.0,35,0.00,,,0.00,Wunderground v.1.15,2013-03-29 20:45:00,
2013-03-29 16:55:00,52.8,25.9,30.18,South,187,4.0,7.0,35,0.00,,,0.00,Wunderground v.1.15,2013-03-29 20:55:00,
2013-03-29 17:00:00,52.9,26.0,30.18,WNW,283,3.0,3.0,35,0.00,,,0.00,Wunderground v.1.15,2013-03-29 21:00:00,
2013-03-29 17:10:00,52.8,25.2,30.18,SW,220,4.0,4.0,34,0.00,,,0.00,Wunderground v.1.15,2013-03-29 21:10:00,
2013-03-29 17:20:00,52.6,27.0,30.17,SW,228,2.0,2.0,37,0.00,,,0.00,Wunderground v.1.15,2013-03-29 21:20:00,
2013-03-29 17:25:00,52.5,26.3,30.17,NNE,15,2.0,2.0,36,0.00,,,0.00,Wunderground v.1.15,2013-03-29 21:25:00,
2013-03-29 17:35:00,52.2,26.0,30.17,West,264,2.0,2.0,36,0.00,,,0.00,Wunderground v.1.15,2013-03-29 21:35:00,
2013-03-29 17:40:00,52.5,26.3,30.17,NW,326,2.0,3.0,36,0.00,,,0.00,Wunderground v.1.15,2013-03-29 21:40:00,
2013-03-29 17:50:00,53.1,25.4,30.17,WSW,238,3.0,6.0,34,0.00,,,0.00,Wunderground v.1.15,2013-03-29 21:50:00,
2013-03-29 17:55:00,52.6,25.0,30.17,West,271,4.0,6.0,34,0.00,,,0.00,Wunderground v.1.15,2013-03-29 21:55:00,
2013-03-29 18:00:00,52.1,25.3,30.17,NW,310,4.0,4.0,35,0.00,,,0.00,Wunderground v.1.15,2013-03-29 22:00:00,
2013-03-29 18:10:00,51.8,25.7,30.17,WSW,240,2.0,3.0,36,0.00,,,0.00,Wunderground v.1.15,2013-03-29 22:10:00,
2013-03-29 18:20:00,51.4,25.3,30.18,SE,139,2.0,2.0,36,0.00,,,0.00,Wunderground v.1.15,2013-03-29 22:20:00,
2013-03-29 18:25:00,51.2,25.1,30.18,NNW,336,2.0,2.0,36,0.00,,,0.00,Wunderground v.1.15,2013-03-29 22:25:00,
2013-03-29 18:35:00,50.7,24.7,30.18,South,184,1.0,2.0,36,0.00,,,0.00,Wunderground v.1.15,2013-03-29 22:35:00,
2013-03-29 18:40:00,50.5,25.2,30.18,West,264,1.0,1.0,37,0.00,,,0.00,Wunderground v.1.15,2013-03-29 22:40:00,
2013-03-29 18:45:00,50.4,25.1,30.18,NNE,29,1.0,1.0,37,0.00,,,0.00,Wunderground v.1.15,2013-03-29 22:45:00,
2013-03-29 18:55:00,50.2,24.9,30.18,ESE,120,0.0,1.0,37,0.00,,,0.00,Wunderground v.1.15,2013-03-29 22:55:00,
2013-03-29 19:05:00,50.2,24.9,30.18,ESE,115,2.0,2.0,37,0.00,,,0.00,Wunderground v.1.15,2013-03-29 23:05:00,
2013-03-29 19:15:00,50.1,24.8,30.18,ESE,113,2.0,2.0,37,0.00,,,0.00,Wunderground v.1.15,2013-03-29 23:15:00,
2013-03-29 19:20:00,49.9,24.6,30.18,NE,39,2.0,2.0,37,0.00,,,0.00,Wunderground v.1.15,2013-03-29 23:20:00,
2013-03-29 19:25:00,49.7,23.8,30.18,North,352,1.0,2.0,36,0.00,,,0.00,Wunderground v.1.15,2013-03-29 23:25:00,
2013-03-29 19:35:00,49.1,24.6,30.18,North,352,0.0,1.0,38,0.00,,,0.00,Wunderground v.1.15,2013-03-29 23:35:00,
2013-03-29 19:45:00,48.1,26.1,30.19,SW,222,0.0,0.0,42,0.00,,,0.00,Wunderground v.1.15,2013-03-29 23:45:00,
2013-03-29 19:50:00,47.6,25.6,30.19,SE,127,0.0,0.0,42,0.00,,,0.00,Wunderground v.1.15,2013-03-29 23:50:00,
2013-03-29 20:00:00,46.3,26.6,30.19,SE,128,0.0,0.0,46,0.00,,,0.00,Wunderground v.1.15,2013-03-30 00:00:00,
2013-03-29 20:10:00,45.0,27.5,30.19,SSW,203,0.0,0.0,50,0.00,,,0.00,Wunderground v.1.15,2013-03-30 00:10:00,
2013-03-29 20:15:00,44.3,28.2,30.19,SSW,203,0.0,0.0,53,0.00,,,0.00,Wunderground v.1.15,2013-03-30 00:15:00,
2013-03-29 20:20:00,43.7,27.7,30.20,SSW,203,0.0,0.0,53,0.00,,,0.00,Wunderground v.1.15,2013-03-30 00:20:00,
2013-03-29 20:30:00,42.4,27.4,30.20,SSW,203,0.0,0.0,55,0.00,,,0.00,Wunderground v.1.15,2013-03-30 00:30:00,
2013-03-29 20:35:00,41.7,26.3,30.20,SSW,203,0.0,0.0,54,0.00,,,0.00,Wunderground v.1.15,2013-03-30 00:35:00,
2013-03-29 20:45:00,40.7,25.8,30.21,SSW,203,0.0,0.0,55,0.00,,,0.00,Wunderground v.1.15,2013-03-30 00:45:00,
2013-03-29 20:50:00,40.2,26.2,30.21,SSW,202,0.0,0.0,57,0.00,,,0.00,Wunderground v.1.15,2013-03-30 00:50:00,
2013-03-29 21:00:00,39.5,25.9,30.21,SSW,203,0.0,0.0,58,0.00,,,0.00,Wunderground v.1.15,2013-03-30 01:00:00,
2013-03-29 21:10:00,39.0,25.9,30.21,SSW,203,0.0,0.0,59,0.00,,,0.00,Wunderground v.1.15,2013-03-30 01:10:00,
2013-03-29 21:15:00,38.7,25.6,30.21,SSW,203,0.0,0.0,59,0.00,,,0.00,Wunderground v.1.15,2013-03-30 01:15:00,
2013-03-29 21:20:00,38.4,25.7,30.22,SSW,204,0.0,0.0,60,0.00,,,0.00,Wunderground v.1.15,2013-03-30 01:20:00,
2013-03-29 21:30:00,37.7,25.8,30.22,SSW,203,0.0,0.0,62,0.00,,,0.00,Wunderground v.1.15,2013-03-30 01:30:00,
2013-03-29 21:35:00,37.4,25.9,30.22,SSW,203,0.0,0.0,63,0.00,,,0.00,Wunderground v.1.15,2013-03-30 01:35:00,
2013-03-29 21:45:00,36.9,25.9,30.22,SSW,204,0.0,0.0,64,0.00,,,0.00,Wunderground v.1.15,2013-03-30 01:45:00,
2013-03-29 21:55:00,36.2,25.6,30.22,SSW,203,0.0,0.0,65,0.00,,,0.00,Wunderground v.1.15,2013-03-30 01:55:00,
2013-03-29 22:00:00,35.8,25.2,30.22,SSW,204,0.0,0.0,65,0.00,,,0.00,Wunderground v.1.15,2013-03-30 02:00:00,
2013-03-29 22:10:00,35.2,25.3,30.22,SSW,204,0.0,0.0,67,0.00,,,0.00,Wunderground v.1.15,2013-03-30 02:10:00,
2013-03-29 22:15:00,35.1,27.0,30.23,SSW,204,0.0,0.0,72,0.00,,,0.00,Wunderground v.1.15,2013-03-30 02:15:00,
2013-03-29 22:25:00,34.8,27.7,30.23,SSW,204,0.0,0.0,75,0.00,,,0.00,Wunderground v.1.15,2013-03-30 02:25:00,
2013-03-29 22:30:00,34.5,27.1,30.23,SSW,203,0.0,0.0,74,0.00,,,0.00,Wunderground v.1.15,2013-03-30 02:30:00,
2013-03-29 22:35:00,34.1,26.7,30.23,SSW,205,0.0,0.0,74,0.00,,,0.00,Wunderground v.1.15,2013-03-30 02:35:00,
2013-03-29 22:45:00,33.7,26.9,30.23,SSW,204,0.0,0.0,76,0.00,,,0.00,Wunderground v.1.15,2013-03-30 02:45:00,
2013-03-29 22:55:00,33.2,26.8,30.23,SSW,203,0.0,0.0,77,0.00,,,0.00,Wunderground v.1.15,2013-03-30 02:55:00,
2013-03-29 23:00:00,33.0,26.9,30.23,SSW,204,0.0,0.0,78,0.00,,,0.00,Wunderground v.1.15,2013-03-30 03:00:00,
2013-03-29 23:10:00,32.7,26.6,30.23,SSW,203,0.0,0.0,78,0.00,,,0.00,Wunderground v.1.15,2013-03-30 03:10:00,
2013-03-29 23:15:00,32.5,26.4,30.23,SSW,203,0.0,0.0,78,0.00,,,0.00,Wunderground v.1.15,2013-03-30 03:15:00,
2013-03-29 23:25:00,32.1,26.0,30.23,SSW,203,0.0,0.0,78,0.00,,,0.00,Wunderground v.1.15,2013-03-30 03:25:00,
2013-03-29 23:35:00,31.7,25.6,30.23,SSW,203,0.0,0.0,78,0.00,,,0.00,Wunderground v.1.15,2013-03-30 03:35:00,
2013-03-29 23:40:00,31.5,25.4,30.23,SSW,203,0.0,0.0,78,0.00,,,0.00,Wunderground v.1.15,2013-03-30 03:40:00,
2013-03-29 23:50:00,31.2,25.7,30.23,SSW,203,0.0,0.0,80,0.00,,,0.00,Wunderground v.1.15,2013-03-30 03:50:00,
2013-03-29 23:55:00,31.0,25.2,30.23,SSW,203,0.0,0.0,79,0.00,,,0.00,Wunderground v.1.15,2013-03-30 03:55:00,